SCP
0 0 0 0 0 0 0 0 0 0 0 0 0 0 0 0 0 0 0 0 0 0 0 0 0 0 0 0 0 0 0 0 0 0 0 0 0 0 0 0 0 0 0
0 0 0 0 0 0 0 0 0 0 0 0 0 0 0 0 0 0 0 0 0 0 0 0 0 0 0 0 0 0 0 0 0 0 0 0 0 0 0 0 0 0 0
0 0 0 0 0 0 0 0 0 0 0 0 0 0 0 0 0 0 0 0 0 0 0 0 0 0 0 0 0 0 0 0 0 0 0 0 0 0 0 0 0 0 0
0 0 0 0 0 0 0 0 0 0 0 0 0 0 0 0 0 0 0 0 0 0 0 0 0 0 0 0 0 0 0 0 0 0 0 0 0 0 0 0 0 0 0
0 0 0 0 0 0 0 0 0 0 0 0 0 0 0 0 0 0 0 0 0 0 0 0 0 0 0 0 0 0 0 0 0 0 0 0 0 0 0 0 0 0 0
0 0 0 0 0 0 0 0 0 0 0 0 0 0 0 0 0 0 0 0 0 0 0 0 0 0 0 0 0 0 0 0 0 0 0 0 0 0 0 0 0 0 0
0 0 0 0 0 0 0 0 0 0 0 0 0 0 0 0 0 0 0 0 0 0 0 0 0 0 0 0 0 0 0 0 0 0 0 0 0 0 0 0 0 0 0
0 0 0 0 0 0 0 0 0 0 0 0 0 0 0 0 0 0 0 0 0 0 0 0 0 0 0 0 0 0 0 0 0 0 0 0 0 0 0 0 0 0 0
0 0 0 0 0 0 0 0 0 0 0 0 0 0 0 0 0 0 0 0 0 0 0 0 0 0 0 0 0 0 0 0 0 0 0 0 0 0 0 0 0 0 0
0 0 0 0 0 0 0 0 0 0 0 0 0 0 0 0 0 0 0 0 0 0 0 0 0 0 0 0 0 0 0 0 0 0 0 0 0 0 0 0 0 0 0
0 0 0 0 0 0 0 0 0 0 0 0 0 0 0 0 0 0 0 0 0 0 0 0 0 0 0 0 0 0 0 0 0 0 0 0 0 0 0 0 0 0 0
0 0 0 0 0 0 0 0 0 0 0 0 0 0 0 0 0 0 0 0 0 0 0 0 0 0 0 0 0 0 0 0 0 0 0 0 0 0 0 0 0 0 0
0 0 0 0 0 0 0 0 0 0 0 0 0 0 0 0 0 0 0 0 0 0 0 0 0 0 0 0 0 0 0 0 0 0 0 0 0 0 0 0 0 0 0
0 0 0 0 0 0 0 0 0 0 0 0 0 0 0 0 0 0 0 0 0 0 0 0 0 0 0 0 0 0 0 0 0 0 0 0 0 0 0 0 0 0 0
0 0 0 0 0 0 0 0 0 0 0 0 0 0 0 0 0 0 0 0 0 0 0 0 0 0 0 0 0 0 0 0 0 0 0 0 0 0 0 0 0 0 0
0 0 0 0 0 0 0 0 0 0 0 0 0 0 0 0 0 0 0 0 0 0 0 0 0 0 0 0 0 0 0 0 0 0 0 0 0 0 0 0 0 0 0
0 0 0 0 0 0 0 0 0 0 0 0 0 0 0 0 0 0 0 0 0 0 0 0 0 0 0 0 0 0 0 0 0 0 0 0 0 0 0 0 0 0 0
0 0 0 0 0 0 0 0 0 0 0 0 0 0 0 0 0 0 0 0 0 0 0 0 0 0 0 0 0 0 0 0 0 0 0 0 0 0 0 0 0 0 0
0 0 0 0 0 0 0 0 0 0 0 0 0 0 0 0 0 0 0 0 0 0 0 0 0 0 0 0 0 0 0 0 0 0 0 0 0 0 0 0 0 0 0
0 0 0 0 0 0 0 0 0 0 0 0 0 0 0 0 0 0 0 0 0 0 0 0 0 0 0 0 0 0 0 0 0 0 0 0 0 0 0 0 0 0 0
0 0 0 0 0 0 -0 -0 -0 -0 -0 -0 0 0 0 0 0 0 0 0 0 0 0 0 0 0 0 0 0 0 0 0 0 0 0 0 0 0 0 0 0 0 0
0 -0 -0 -0 -0 -0 -0 -0 -0 -0 -0 -0 -0 0 0 0 0 0 0 0 0 0 0 0 0 0 0 0 0 0 0 0 0 0 0 0 0 0 0 0 0 0 0
-0 -0 -0 -0 -0 -0 -0 -0 -0 -0 -0 0 0 0 0 0 0 0 0 0 0 0 0 0 0 0 0 0 0 0 0 0 0 0 0 0 0 0 0 0 0 0 0
-0 -0 -0 -0 -0 -0 -0 -0 -0 -0 -0 -0 0 0 0 0 0 0 0 0 0 0 0 0 0 0 0 0 0 0 0 0 0 0 0 0 0 0 0 0 0 0 0
-0 -0 -0 -0 -0 -0 -0 -0 -0 -0 0 0 0 0 0 0 0 0 0 0 0 0 0 0 0 0 0 0 0 0 0 0 0 0 0 0 0 0 0 0 0 0 0
-0 -0 0 0 0 0 0 0 0 0 0 0 0 0 0 0 0 0 0 0 0 0 0 0 0 0 0 0 0 0 0 0 0 0 0 0 0 0 0 0 0 0 0
Wind_Speed_500mb
48 55 61 63 64 64 64 60 59 59 59 60 61 61 61 60 59 61 59 59 59 59 58 58 55 54 53 51 50 49 47 46 49 46 40 36 32 32 33 34 34 36 38
32 42 49 56 59 63 64 62 62 63 64 63 64 66 66 64 62 63 61 60 60 60 58 58 55 55 54 53 52 50 48 46 46 44 42 35 34 32 33 33 34 38 40
20 28 36 43 50 55 60 62 65 65 66 68 68 69 69 68 66 65 63 62 61 60 58 59 56 56 55 55 52 50 47 45 45 44 43 35 34 31 32 30 29 29 35
8 14 20 27 34 41 48 54 60 63 68 70 69 70 71 70 69 67 65 64 62 61 60 60 58 58 56 53 51 49 47 47 44 42 40 34 34 30 31 27 26 30 28
14 18 21 25 29 33 38 43 49 56 62 67 70 72 72 74 73 69 68 66 65 63 62 60 60 58 55 52 52 50 48 46 43 39 37 32 33 32 30 26 33 32 27
16 19 22 26 31 36 41 44 47 51 56 61 67 70 73 76 72 69 68 68 66 65 64 61 60 57 56 55 52 50 49 44 41 39 31 32 38 32 27 25 36 31 26
20 23 26 30 34 36 39 43 47 49 52 56 61 65 70 72 70 68 66 68 67 66 64 62 62 58 56 55 53 52 50 45 43 38 29 31 38 29 23 35 31 29 28
25 27 29 31 33 37 40 43 44 48 52 53 54 57 63 66 66 64 65 66 69 66 65 63 61 58 57 55 53 52 47 45 40 36 28 33 33 22 30 33 25 29 26
29 32 34 36 37 39 40 42 43 46 48 51 53 54 57 57 59 59 64 67 70 67 65 61 60 58 54 52 51 49 46 44 40 29 32 33 28 38 34 32 31 22 25
30 33 37 39 40 42 44 45 45 45 46 48 48 49 52 52 54 54 59 66 67 65 63 62 60 59 55 55 54 51 50 45 38 32 36 43 49 44 32 38 26 19 16
28 30 33 37 40 43 43 43 44 45 45 44 45 45 46 47 49 50 55 63 62 62 62 63 61 58 55 52 51 51 48 41 39 43 54 50 44 38 31 28 17 15 10
28 30 34 37 40 42 45 44 43 42 42 40 41 41 40 41 42 45 50 55 52 58 59 58 55 51 50 52 53 47 45 53 42 49 45 41 37 28 25 16 17 12 9
29 31 34 36 38 39 39 40 40 39 38 37 38 38 36 35 36 38 41 45 47 51 53 51 47 49 48 49 46 50 51 42 44 44 39 35 28 24 18 16 15 13 12
31 32 32 31 29 31 31 33 35 34 34 35 36 36 36 34 33 32 34 39 47 50 49 45 42 43 44 45 48 48 42 44 43 38 33 28 25 18 18 17 17 17 16
30 30 31 30 30 28 26 27 25 26 29 29 30 31 33 32 30 30 30 40 51 48 39 37 38 41 44 49 49 43 46 40 37 34 30 25 19 19 21 20 19 21 16
27 28 30 29 27 25 22 20 19 20 21 23 23 24 24 26 26 25 27 34 38 38 39 43 41 42 49 47 47 50 42 38 34 30 24 21 21 22 23 24 23 21 18
23 23 25 25 25 25 23 23 22 19 22 22 22 20 16 12 13 13 15 21 26 30 33 35 38 42 43 48 51 43 41 34 30 23 21 20 22 23 27 26 25 24 20
22 21 22 23 23 23 24 24 25 26 28 28 26 25 22 17 12 6 5 10 18 23 27 32 37 46 50 44 38 36 34 31 24 23 22 22 24 25 27 25 23 19 13
28 27 25 25 25 25 26 27 28 28 29 30 31 28 24 14 8 6 10 18 19 25 34 34 34 33 29 28 29 28 24 22 26 26 24 25 27 28 27 25 21 16 11
36 36 35 34 34 32 31 30 30 30 30 31 31 29 24 17 10 2 10 19 25 30 34 29 19 17 20 19 16 18 26 29 28 27 27 28 29 28 27 23 17 14 11
35 35 36 35 37 37 35 34 33 31 30 30 30 31 28 21 14 8 7 12 12 9 10 13 13 9 10 17 26 29 28 29 31 33 32 31 31 29 25 18 13 11 8
35 35 34 34 33 33 32 30 27 25 23 21 21 21 21 20 17 12 9 7 5 4 4 2 8 17 23 22 22 24 26 30 33 33 33 32 28 24 20 16 13 10 7
29 31 33 35 34 32 31 29 26 22 19 16 12 11 8 6 4 2 2 3 5 6 10 14 20 19 17 20 23 23 24 25 27 30 31 28 24 19 17 14 11 9 9
16 18 20 22 23 23 23 22 20 19 21 21 20 21 16 10 6 3 6 10 12 13 16 20 25 22 21 21 23 25 28 30 30 29 27 23 20 18 17 14 11 8 7
14 15 15 16 14 15 15 14 13 17 20 23 21 19 17 19 18 18 18 15 18 19 26 26 22 21 22 21 23 27 30 31 30 29 27 25 24 22 19 16 13 11 12
14 15 16 18 20 21 22 21 22 24 26 27 30 32 32 32 29 24 26 26 23 27 27 25 24 27 29 29 31 30 30 30 30 29 27 25 24 22 19 17 17 17 18
Wind_Direction_500mb
232 235 238 241 244 247 250 252 254 256 257 257 259 259 260 260 260 259 259 260 259 258 259 259 259 258 257 255 253 252 252 251 256 259 265 271 272 278 285 292 299 302 303
233 236 240 243 246 248 251 253 254 255 257 258 258 258 259 260 260 260 259 260 260 259 260 259 258 256 254 252 252 253 252 253 255 263 266 269 271 276 282 287 295 299 302
241 244 246 248 251 253 254 255 256 257 258 258 259 260 261 260 261 261 260 260 259 259 258 258 257 255 252 251 252 253 254 255 255 260 266 271 276 281 285 289 294 295 298
283 275 270 268 266 265 263 261 260 259 258 259 261 262 262 262 261 261 260 260 260 259 257 256 255 253 252 252 252 253 253 253 254 258 263 273 281 286 289 297 300 302 300
308 297 287 279 276 274 272 270 266 262 261 260 259 259 260 259 259 259 259 261 261 260 258 256 253 252 251 251 250 251 251 251 253 255 259 271 278 285 289 306 310 303 308
325 308 301 294 287 280 275 273 270 268 265 262 260 260 259 260 260 258 257 258 259 259 258 256 254 250 248 247 248 249 249 248 248 251 255 267 284 281 289 311 299 307 324
342 328 318 310 301 294 288 279 273 271 270 270 268 265 263 262 260 258 256 257 257 257 257 255 253 250 247 246 246 244 244 244 244 244 249 266 271 272 295 299 300 306 314
336 329 320 315 310 303 297 293 289 282 274 268 266 266 267 266 264 259 257 256 256 256 255 253 252 249 247 246 243 243 242 240 239 239 248 260 261 272 286 288 302 303 312
323 322 318 315 310 305 303 297 291 285 281 277 273 270 268 266 264 260 256 254 254 255 254 253 251 249 246 243 242 241 240 237 231 224 248 247 249 265 273 274 271 296 312
317 317 318 316 314 310 307 302 296 290 286 281 276 272 270 268 265 258 254 255 255 254 256 253 249 247 243 241 239 237 235 228 219 240 243 242 261 263 270 275 276 285 294
323 321 319 317 315 313 310 306 300 294 290 286 282 278 275 272 267 260 253 251 253 254 253 252 251 247 242 239 237 234 231 220 224 240 252 255 260 254 262 268 270 266 263
321 320 317 314 311 309 308 306 302 298 293 289 287 286 283 278 272 265 256 253 251 252 254 255 251 245 237 232 231 230 224 227 246 257 253 253 256 258 253 261 253 236 220
322 320 318 314 312 310 309 306 304 301 300 299 296 294 292 286 279 269 260 251 245 247 249 250 248 240 234 232 232 229 229 239 253 246 247 250 251 244 255 240 218 204 180
326 326 326 324 324 322 318 319 322 324 323 319 313 307 301 296 291 281 264 248 240 239 241 240 237 237 237 235 229 226 235 250 246 246 240 235 225 241 236 212 202 183 170
342 342 343 345 344 343 343 342 339 330 327 322 315 309 306 301 289 277 262 248 243 239 237 232 229 233 228 224 221 230 241 234 233 229 221 215 231 234 205 194 188 181 172
347 348 349 347 346 343 344 342 338 339 339 340 337 329 317 311 303 288 265 250 245 240 235 237 235 232 224 225 232 235 227 223 222 213 211 227 228 202 191 185 181 182 179
352 349 344 343 345 347 351 352 354 0 358 360 356 355 351 344 339 326 302 268 243 236 235 237 236 231 228 236 240 229 222 217 206 210 233 222 197 195 184 181 183 181 178
24 24 19 13 10 8 9 10 11 10 7 4 3 359 359 2 21 41 255 247 227 235 246 246 242 236 239 247 229 214 204 196 203 225 217 200 193 191 187 186 186 182 179
49 44 37 33 30 29 27 25 22 19 15 11 7 4 355 349 11 97 180 215 232 236 245 246 255 259 243 220 210 197 193 212 221 211 202 200 197 192 189 187 184 185 193
55 50 46 43 40 37 36 33 30 28 26 24 23 21 15 2 353 318 231 239 251 255 255 260 252 217 197 182 184 209 222 215 208 208 206 202 198 191 187 186 186 184 191
52 48 44 42 41 40 41 42 43 45 47 43 37 36 35 32 22 6 332 303 288 267 224 180 155 143 176 209 228 227 217 213 208 203 202 197 188 188 188 187 187 190 206
51 47 42 41 41 40 38 39 40 42 46 47 51 52 53 59 62 51 46 51 66 54 38 351 209 216 229 235 227 217 214 207 200 196 190 187 188 188 189 192 199 211 229
51 46 43 39 38 37 36 35 32 30 31 29 21 8 357 349 353 347 350 6 336 291 258 250 252 256 243 226 212 204 199 193 192 192 191 188 189 191 197 203 214 234 256
47 36 28 31 30 29 24 12 2 356 354 354 346 326 326 314 303 302 308 298 284 274 262 262 262 247 237 225 211 199 193 190 188 187 189 193 195 196 200 201 216 240 279
22 13 4 353 345 344 352 350 347 342 338 338 339 338 336 318 310 308 293 279 269 259 268 268 251 237 232 221 217 212 207 204 200 199 200 201 203 207 210 217 233 257 280
334 334 330 321 322 321 315 305 295 294 293 292 294 298 295 289 281 275 274 274 276 280 279 271 261 253 247 236 227 221 218 216 214 214 218 220 221 225 230 239 250 263 274
Wind_Speed_850mb
48 55 61 63 64 64 64 60 59 59 59 60 61 61 61 60 59 61 59 59 59 59 58 58 55 54 53 51 50 49 47 46 49 46 40 36 32 32 33 34 34 36 38
32 42 49 56 59 63 64 62 62 63 64 63 64 66 66 64 62 63 61 60 60 60 58 58 55 55 54 53 52 50 48 46 46 44 42 35 34 32 33 33 34 38 40
20 28 36 43 50 55 60 62 65 65 66 68 68 69 69 68 66 65 63 62 61 60 58 59 56 56 55 55 52 50 47 45 45 44 43 35 34 31 32 30 29 29 35
8 14 20 27 34 41 48 54 60 63 68 70 69 70 71 70 69 67 65 64 62 61 60 60 58 58 56 53 51 49 47 47 44 42 40 34 34 30 31 27 26 30 28
14 18 21 25 29 33 38 43 49 56 62 67 70 72 72 74 73 69 68 66 65 63 62 60 60 58 55 52 52 50 48 46 43 39 37 32 33 32 30 26 33 32 27
16 19 22 26 31 36 41 44 47 51 56 61 67 70 73 76 72 69 68 68 66 65 64 61 60 57 56 55 52 50 49 44 41 39 31 32 38 32 27 25 36 31 26
20 23 26 30 34 36 39 43 47 49 52 56 61 65 70 72 70 68 66 68 67 66 64 62 62 58 56 55 53 52 50 45 43 38 29 31 38 29 23 35 31 29 28
25 27 29 31 33 37 40 43 44 48 52 53 54 57 63 66 66 64 65 66 69 66 65 63 61 58 57 55 53 52 47 45 40 36 28 33 33 22 30 33 25 29 26
29 32 34 36 37 39 40 42 43 46 48 51 53 54 57 57 59 59 64 67 70 67 65 61 60 58 54 52 51 49 46 44 40 29 32 33 28 38 34 32 31 22 25
30 33 37 39 40 42 44 45 45 45 46 48 48 49 52 52 54 54 59 66 67 65 63 62 60 59 55 55 54 51 50 45 38 32 36 43 49 44 32 38 26 19 16
28 30 33 37 40 43 43 43 44 45 45 44 45 45 46 47 49 50 55 63 62 62 62 63 61 58 55 52 51 51 48 41 39 43 54 50 44 38 31 28 17 15 10
28 30 34 37 40 42 45 44 43 42 42 40 41 41 40 41 42 45 50 55 52 58 59 58 55 51 50 52 53 47 45 53 42 49 45 41 37 28 25 16 17 12 9
29 31 34 36 38 39 39 40 40 39 38 37 38 38 36 35 36 38 41 45 47 51 53 51 47 49 48 49 46 50 51 42 44 44 39 35 28 24 18 16 15 13 12
31 32 32 31 29 31 31 33 35 34 34 35 36 36 36 34 33 32 34 39 47 50 49 45 42 43 44 45 48 48 42 44 43 38 33 28 25 18 18 17 17 17 16
30 30 31 30 30 28 26 27 25 26 29 29 30 31 33 32 30 30 30 40 51 48 39 37 38 41 44 49 49 43 46 40 37 34 30 25 19 19 21 20 19 21 16
27 28 30 29 27 25 22 20 19 20 21 23 23 24 24 26 26 25 27 34 38 38 39 43 41 42 49 47 47 50 42 38 34 30 24 21 21 22 23 24 23 21 18
23 23 25 25 25 25 23 23 22 19 22 22 22 20 16 12 13 13 15 21 26 30 33 35 38 42 43 48 51 43 41 34 30 23 21 20 22 23 27 26 25 24 20
22 21 22 23 23 23 24 24 25 26 28 28 26 25 22 17 12 6 5 10 18 23 27 32 37 46 50 44 38 36 34 31 24 23 22 22 24 25 27 25 23 19 13
28 27 25 25 25 25 26 27 28 28 29 30 31 28 24 14 8 6 10 18 19 25 34 34 34 33 29 28 29 28 24 22 26 26 24 25 27 28 27 25 21 16 11
36 36 35 34 34 32 31 30 30 30 30 31 31 29 24 17 10 2 10 19 25 30 34 29 19 17 20 19 16 18 26 29 28 27 27 28 29 28 27 23 17 14 11
35 35 36 35 37 37 35 34 33 31 30 30 30 31 28 21 14 8 7 12 12 9 10 13 13 9 10 17 26 29 28 29 31 33 32 31 31 29 25 18 13 11 8
35 35 34 34 33 33 32 30 27 25 23 21 21 21 21 20 17 12 9 7 5 4 4 2 8 17 23 22 22 24 26 30 33 33 33 32 28 24 20 16 13 10 7
29 31 33 35 34 32 31 29 26 22 19 16 12 11 8 6 4 2 2 3 5 6 10 14 20 19 17 20 23 23 24 25 27 30 31 28 24 19 17 14 11 9 9
16 18 20 22 23 23 23 22 20 19 21 21 20 21 16 10 6 3 6 10 12 13 16 20 25 22 21 21 23 25 28 30 30 29 27 23 20 18 17 14 11 8 7
14 15 15 16 14 15 15 14 13 17 20 23 21 19 17 19 18 18 18 15 18 19 26 26 22 21 22 21 23 27 30 31 30 29 27 25 24 22 19 16 13 11 12
14 15 16 18 20 21 22 21 22 24 26 27 30 32 32 32 29 24 26 26 23 27 27 25 24 27 29 29 31 30 30 30 30 29 27 25 24 22 19 17 17 17 18
Wind_Direction_850mb
232 235 238 241 244 247 250 252 254 256 257 257 259 259 260 260 260 259 259 260 259 258 259 259 259 258 257 255 253 252 252 251 256 259 265 271 272 278 285 292 299 302 303
233 236 240 243 246 248 251 253 254 255 257 258 258 258 259 260 260 260 259 260 260 259 260 259 258 256 254 252 252 253 252 253 255 263 266 269 271 276 282 287 295 299 302
241 244 246 248 251 253 254 255 256 257 258 258 259 260 261 260 261 261 260 260 259 259 258 258 257 255 252 251 252 253 254 255 255 260 266 271 276 281 285 289 294 295 298
283 275 270 268 266 265 263 261 260 259 258 259 261 262 262 262 261 261 260 260 260 259 257 256 255 253 252 252 252 253 253 253 254 258 263 273 281 286 289 297 300 302 300
308 297 287 279 276 274 272 270 266 262 261 260 259 259 260 259 259 259 259 261 261 260 258 256 253 252 251 251 250 251 251 251 253 255 259 271 278 285 289 306 310 303 308
325 308 301 294 287 280 275 273 270 268 265 262 260 260 259 260 260 258 257 258 259 259 258 256 254 250 248 247 248 249 249 248 248 251 255 267 284 281 289 311 299 307 324
342 328 318 310 301 294 288 279 273 271 270 270 268 265 263 262 260 258 256 257 257 257 257 255 253 250 247 246 246 244 244 244 244 244 249 266 271 272 295 299 300 306 314
336 329 320 315 310 303 297 293 289 282 274 268 266 266 267 266 264 259 257 256 256 256 255 253 252 249 247 246 243 243 242 240 239 239 248 260 261 272 286 288 302 303 312
323 322 318 315 310 305 303 297 291 285 281 277 273 270 268 266 264 260 256 254 254 255 254 253 251 249 246 243 242 241 240 237 231 224 248 247 249 265 273 274 271 296 312
317 317 318 316 314 310 307 302 296 290 286 281 276 272 270 268 265 258 254 255 255 254 256 253 249 247 243 241 239 237 235 228 219 240 243 242 261 263 270 275 276 285 294
323 321 319 317 315 313 310 306 300 294 290 286 282 278 275 272 267 260 253 251 253 254 253 252 251 247 242 239 237 234 231 220 224 240 252 255 260 254 262 268 270 266 263
321 320 317 314 311 309 308 306 302 298 293 289 287 286 283 278 272 265 256 253 251 252 254 255 251 245 237 232 231 230 224 227 246 257 253 253 256 258 253 261 253 236 220
322 320 318 314 312 310 309 306 304 301 300 299 296 294 292 286 279 269 260 251 245 247 249 250 248 240 234 232 232 229 229 239 253 246 247 250 251 244 255 240 218 204 180
326 326 326 324 324 322 318 319 322 324 323 319 313 307 301 296 291 281 264 248 240 239 241 240 237 237 237 235 229 226 235 250 246 246 240 235 225 241 236 212 202 183 170
342 342 343 345 344 343 343 342 339 330 327 322 315 309 306 301 289 277 262 248 243 239 237 232 229 233 228 224 221 230 241 234 233 229 221 215 231 234 205 194 188 181 172
347 348 349 347 346 343 344 342 338 339 339 340 337 329 317 311 303 288 265 250 245 240 235 237 235 232 224 225 232 235 227 223 222 213 211 227 228 202 191 185 181 182 179
352 349 344 343 345 347 351 352 354 0 358 360 356 355 351 344 339 326 302 268 243 236 235 237 236 231 228 236 240 229 222 217 206 210 233 222 197 195 184 181 183 181 178
24 24 19 13 10 8 9 10 11 10 7 4 3 359 359 2 21 41 255 247 227 235 246 246 242 236 239 247 229 214 204 196 203 225 217 200 193 191 187 186 186 182 179
49 44 37 33 30 29 27 25 22 19 15 11 7 4 355 349 11 97 180 215 232 236 245 246 255 259 243 220 210 197 193 212 221 211 202 200 197 192 189 187 184 185 193
55 50 46 43 40 37 36 33 30 28 26 24 23 21 15 2 353 318 231 239 251 255 255 260 252 217 197 182 184 209 222 215 208 208 206 202 198 191 187 186 186 184 191
52 48 44 42 41 40 41 42 43 45 47 43 37 36 35 32 22 6 332 303 288 267 224 180 155 143 176 209 228 227 217 213 208 203 202 197 188 188 188 187 187 190 206
51 47 42 41 41 40 38 39 40 42 46 47 51 52 53 59 62 51 46 51 66 54 38 351 209 216 229 235 227 217 214 207 200 196 190 187 188 188 189 192 199 211 229
51 46 43 39 38 37 36 35 32 30 31 29 21 8 357 349 353 347 350 6 336 291 258 250 252 256 243 226 212 204 199 193 192 192 191 188 189 191 197 203 214 234 256
47 36 28 31 30 29 24 12 2 356 354 354 346 326 326 314 303 302 308 298 284 274 262 262 262 247 237 225 211 199 193 190 188 187 189 193 195 196 200 201 216 240 279
22 13 4 353 345 344 352 350 347 342 338 338 339 338 336 318 310 308 293 279 269 259 268 268 251 237 232 221 217 212 207 204 200 199 200 201 203 207 210 217 233 257 280
334 334 330 321 322 321 315 305 295 294 293 292 294 298 295 289 281 275 274 274 276 280 279 271 261 253 247 236 227 221 218 216 214 214 218 220 221 225 230 239 250 263 274